Simultaneous Nadir Overpasses (SNOs) Predictions

Prediction of SNOs between LANDSAT-8 and METOP-B Satellite Orbit:

Table of predicted SNOs for the next 14.0 days since TLE Epoch: 3/2/2019
Index Date (LANDSAT-8) Time (LANDSAT-8) Lat,Lon (LANDSAT-8) SZA (LANDSAT-8 ) Date (METOP-B) Time (METOP-B) Lat,Lon (METOP-B) SZA (METOP-B ) Distance(km) Time Diff (sec)
1 03/02/2019 16:41:10 81.09, -31.19 89.87 03/02/2019 16:40:49 81.09, -31.38 89.84 3.24 21
2 03/02/2019 17:30:36 -81.11, 136.76 90.10 03/02/2019 17:31:28 -81.11, 136.67 90.09 1.59 52
3 03/05/2019 12:15:23 81.10, 35.37 88.82 03/05/2019 12:15:11 81.10, 35.43 88.83 0.98 12
4 03/05/2019 13:04:49 -81.12,-156.65 91.15 03/05/2019 13:05:50 -81.12,-156.52 91.11 2.30 61
5 03/08/2019 07:49:37 81.11, 101.92 87.77 03/08/2019 07:49:35 81.10, 101.86 87.76 1.36 2
6 03/08/2019 08:39:03 -81.13, -90.08 92.20 03/08/2019 08:40:14 -81.13, -90.09 92.18 0.56 71
7 03/11/2019 02:34:27 -81.06, 0.09 93.40 03/11/2019 02:33:21 -81.06, -0.07 93.44 2.62 66
8 03/11/2019 03:23:51 81.11, 168.46 86.70 03/11/2019 03:23:58 81.11, 168.65 86.72 3.23 7
9 03/13/2019 22:08:40 -81.07, 66.62 94.47 03/13/2019 22:07:43 -81.08, 66.71 94.48 1.88 57




NCC Satellite Simultaneous Nadir Overpasses (SNOs) Prediction Service
